Rabat-Sale, Morocco

11:20 AM WET on February 08, 2016 (GMT +0000)
Sale

Weather History for GMME - October, 2012

Change the Weather History Date:

Tuesday, October 2, 2012

  Actual Average Record
Temperature  
Mean Temperature 68 °F -  
Max Temperature 77 °F 73 °F 84 °F (2011)
Min Temperature 59 °F 57 °F 53 °F (1996)
Cooling Degree Days 3    
Growing Degree Days 18 (Base 50)    
Moisture  
Dew Point 63 °F    
Average Humidity 84    
Maximum Humidity 100    
Minimum Humidity 53    
Precipitation  
Precipitation 0.00 in 0.06 in - ()
Sea Level Pressure  
Sea Level Pressure 30.10 in    
Wind  
Wind Speed 2 mph ()    
Max Wind Speed 10 mph    
Max Gust Speed -    
Visibility 3.0 miles    
Events Fog    
Averages and records for this station are not official NWS values.
T = Trace of Precipitation, MM = Missing Value Source: Averaged Metar Reports

Daily Weather History Graph

Daily Weather History Graph

Search for Another Location

Airport or City:

Trip Planner

Search our weather history database for the weather conditions in past years. The results will help you decide how hot, cold, wet, or windy it might be!

Date:

Astronomy

Oct. 02, 2012 Rise Set
Actual Time 6:22 AM WET 6:09 PM WET
Civil Twilight 5:57 AM WET 6:34 PM WET
Nautical Twilight 5:28 AM WET 7:03 PM WET
Astronomical Twilight 4:59 AM WET 7:32 PM WET
Moon 7:23 PM WET (10/2) 8:28 AM WET (10/2)
Length of Visible Light 12h 37m
Length of Day
11h 47m
Waning Gibbous, 95% of the Moon is Illuminated
Oct 2
Waning Gibbous
Oct 8
Last Quarter
Oct 15
New
Oct 22
First Quarter
Oct 29
Full

Hourly Weather History & Observations

Time (WET) Temp. Dew Point Humidity Pressure Visibility Wind Dir Wind Speed Gust Speed Precip Events Conditions
12:00 AM 62.6 °F 59.0 °F 88% 30.12 in 3.1 mi Calm Calm - N/A   Partly Cloudy
12:21 AM 59.0 °F 57.2 °F 94% 30.12 in 1.9 mi Calm Calm - N/A   Scattered Clouds
12:30 AM 60.8 °F 59.0 °F 94% 30.12 in 1.9 mi Calm Calm - N/A   Scattered Clouds
1:00 AM 62.6 °F 60.8 °F 94% 30.12 in 1.9 mi Calm Calm - N/A   Scattered Clouds
1:22 AM 64.4 °F 62.6 °F 94% 30.12 in 0.2 mi Calm Calm - N/A Fog Fog
2:00 AM 64.4 °F 62.6 °F 94% 30.12 in 0.2 mi Calm Calm - N/A Fog Fog
2:30 AM 64.4 °F 62.6 °F 94% 30.09 in 0.2 mi Calm Calm - N/A Fog Fog
3:00 AM 65 °F 63 °F 92% 30.12 in 0 mi Calm Calm - - Fog Partial Fog
3:00 AM - - N/A% 30.09 in 0.2 mi Calm Calm - N/A Fog Fog
3:30 AM 64.4 °F 64.4 °F 100% 30.09 in 0.2 mi Calm Calm - N/A Fog Fog
4:00 AM 66.2 °F 64.4 °F 94% 30.09 in 0.2 mi Calm Calm - N/A Fog Fog
4:05 AM 66.2 °F 64.4 °F 94% 30.09 in 1.2 mi Calm Calm - N/A   Mostly Cloudy
5:00 AM 64.4 °F 64.4 °F 100% 30.09 in 1.2 mi Calm Calm - N/A   Mostly Cloudy
5:30 AM 62.6 °F 62.6 °F 100% 30.09 in 1.2 mi Calm Calm - N/A   Mostly Cloudy
5:35 AM 64.4 °F 62.6 °F 94% 30.09 in 1.9 mi Calm Calm - N/A   Scattered Clouds
6:00 AM 63 °F 62 °F 95% 30.11 in 2 mi Calm Calm - -   Mist
6:00 AM 62.6 °F 62.6 °F 100% 30.09 in 1.9 mi Calm Calm - N/A   Scattered Clouds
6:30 AM 62.6 °F 60.8 °F 94% 30.09 in 1.9 mi Calm Calm - N/A   Scattered Clouds
7:00 AM 62.6 °F 62.6 °F 100% 30.12 in 1.9 mi Calm Calm - N/A   Scattered Clouds
7:19 AM 64.4 °F 62.6 °F 94% 30.12 in 1.2 mi Calm Calm - N/A   Mostly Cloudy
7:30 AM 64.4 °F 62.6 °F 94% 30.12 in 1.2 mi Calm Calm - N/A   Mostly Cloudy
8:00 AM 66.2 °F 66.2 °F 100% 30.12 in 2.2 mi Calm Calm - N/A   Scattered Clouds
8:30 AM 68.0 °F 66.2 °F 94% 30.12 in 2.5 mi Calm Calm - N/A   Partly Cloudy
8:34 AM 69.8 °F 68.0 °F 94% 30.12 in 3.1 mi Calm Calm - N/A   Scattered Clouds
8:45 AM 69.8 °F 68.0 °F 94% 30.12 in 3.1 mi Calm Calm - N/A   Mostly Cloudy
9:00 AM 70 °F 68 °F 90% 30.14 in 3 mi NE 3.5 mph - -   Mostly Cloudy
9:00 AM 69.8 °F 66.2 °F 88% 30.12 in 3.1 mi NE 3.5 mph - N/A   Mostly Cloudy
9:30 AM 71.6 °F 66.2 °F 83% 30.15 in 3.1 mi NNE 3.5 mph - N/A   Scattered Clouds
10:00 AM 73.4 °F 62.6 °F 69% 30.12 in 3.7 mi Variable 1.2 mph - N/A   Scattered Clouds
10:30 AM 75.2 °F 62.6 °F 65% 30.15 in 3.7 mi North 3.5 mph - N/A   Scattered Clouds
11:00 AM 75.2 °F 64.4 °F 69% 30.12 in 3.7 mi NNW 5.8 mph - N/A   Partly Cloudy
11:30 AM 75.2 °F 62.6 °F 65% 30.12 in 5.0 mi North 6.9 mph - N/A   Partly Cloudy
12:00 PM 76 °F 62 °F 53% 30.12 in 5 mi North 5.8 mph - -   Scattered Clouds
12:00 PM 75.2 °F 60.8 °F 61% 30.12 in 5.0 mi North 5.8 mph - N/A   Partly Cloudy
12:30 PM 77.0 °F 62.6 °F 61% 30.09 in 5.0 mi NNW 8.1 mph - N/A   Partly Cloudy
1:00 PM 77.0 °F 60.8 °F 57% 30.09 in 6.2 mi NNW 8.1 mph - N/A   Partly Cloudy
1:30 PM 77.0 °F 60.8 °F 57% 30.09 in 6.2 mi North 9.2 mph - N/A   Partly Cloudy
2:00 PM 77.0 °F 60.8 °F 57% 30.09 in 5.0 mi NNW 9.2 mph - N/A   Partly Cloudy
2:30 PM 75.2 °F 62.6 °F 65% 30.06 in 5.0 mi NNW 10.4 mph - N/A   Partly Cloudy
3:00 PM 76 °F 62 °F 53% 30.08 in 5 mi North 10.4 mph - -   Scattered Clouds
3:00 PM 77.0 °F 62.6 °F 61% 30.06 in 5.0 mi North 10.4 mph - N/A   Partly Cloudy
3:30 PM 77.0 °F 62.6 °F 61% 30.06 in 5.0 mi North 10.4 mph - N/A   Partly Cloudy
4:00 PM 75.2 °F 62.6 °F 65% 30.06 in 5.0 mi North 8.1 mph - N/A   Partly Cloudy
4:30 PM 75.2 °F 64.4 °F 69% 30.06 in 5.0 mi NNW 8.1 mph - N/A   Scattered Clouds
5:00 PM 73.4 °F 64.4 °F 73% 30.06 in 5.0 mi NNW 8.1 mph - N/A   Scattered Clouds
5:30 PM 73.4 °F 64.4 °F 73% 30.06 in 5.0 mi North 8.1 mph - N/A   Scattered Clouds
6:00 PM 71 °F 66 °F 80% 30.08 in 3 mi North 8.1 mph - -   Partly Cloudy
6:00 PM 71.6 °F 66.2 °F 83% 30.06 in 3.1 mi North 8.1 mph - N/A   Scattered Clouds
6:30 PM 69.8 °F 66.2 °F 88% 30.06 in 3.1 mi NNE 4.6 mph - N/A   Scattered Clouds
7:00 PM 68.0 °F 64.4 °F 88% 30.09 in 3.1 mi NE 1.2 mph - N/A   Scattered Clouds
7:30 PM 66.2 °F 64.4 °F 94% 30.09 in 3.1 mi Calm Calm - N/A   Scattered Clouds
8:00 PM 66.2 °F 62.6 °F 88% 30.09 in 3.1 mi Calm Calm - N/A   Scattered Clouds
8:30 PM 64.4 °F 62.6 °F 94% 30.09 in 3.1 mi Calm Calm - N/A   Partly Cloudy
9:00 PM 64 °F 62 °F 92% 30.11 in 3 mi Calm Calm - -   Scattered Clouds
9:00 PM 64.4 °F 62.6 °F 94% 30.09 in 3.1 mi Calm Calm - N/A   Partly Cloudy
9:30 PM 64.4 °F 62.6 °F 94% 30.09 in 3.1 mi Calm Calm - N/A   Partly Cloudy
10:00 PM 64.4 °F 62.6 °F 94% 30.09 in 3.1 mi Calm Calm - N/A   Partly Cloudy
10:30 PM 62.6 °F 60.8 °F 94% 30.09 in 3.1 mi Calm Calm - N/A   Partly Cloudy
11:00 PM 60.8 °F 59.0 °F 94% 30.09 in 3.1 mi Calm Calm - N/A   Partly Cloudy
11:30 PM 59.0 °F 57.2 °F 94% 30.06 in 3.1 mi Calm Calm - N/A   Partly Cloudy